Location: Unspecified
(48.5670°N, 0.0000°E)
Time: 10:56:25
(UTC+00:00)

Tiros 1 - Pass Details

Date: 22 October 2020
Orbit: 630 x 664 km, 48.4° (Epoch: 03 December)

Event Time Altitude Azimuth Distance (km) Brightness Sun altitude
Exits shadow 04:54:49 - 201° (SSW) 2,881 10.3 -16.6°
Reaches altitude 10° 04:57:38 10° 183° (S) 2,000 9.6 -16.1°
Maximum altitude 05:00:47 18° 140° (SE) 1,525 9.6 -15.6°
Drops below altitude 10° 05:03:57 10° 96° (E) 2,008 11.1 -15.1°
Sets 05:06:51 0° 78° (ENE) 2,922 12.2 -14.6°
